SL-14 DEB, 45293

Orbit data source: Space-Track

SL-14 DEB, 45293 is space debris in LEO originally from a launch on Thu, 15 Aug 1991 UTC launched from the Plesetsk Missile And Space Complex (PKMTR). Debris objects in space refer to the collection of defunct objects orbiting the Earth. Examples of debris include non-operational satellites, rocket bodies, and fragments generated from explosions, collisions, or faulty payload assembly.

Loading next visibility...
Identifier
45293, 1991-056AF
Orbit
LEO
Country
Flag of CISCIS
Related business
Manufacturer
Unknown
Mission
Spacecraft
Bus & Motor
Unknown
Mass
Unknown
Launch date (UTC)
1991-08-15 (34 years ago)
Launch vehicle
Unknown
Launch site
Plesetsk Missile And Space Complex (PKMTR)
Object type
Payload
Rocket body
Debris
Shape & HBR
Unknown shape, 0.1 m
Radar Cross Section
Small (<0.1 m²)

Expand to show TLE details & history
Last TLE update: 17 hours ago

TLE from 17 hours ago
0 SL-14 DEB
1 45293U 91056AF  26036.37698070  .00040535  00000-0  12160-1 0  9999
2 45293  82.5208  54.4120 0119017 144.4829 216.4361 14.38480953300277
Epoch: 2026-02-05T09:02Z
TLE epoch observation values (Epoch: 2026-02-05T09:02:51.132Z)
Latitude
0.00003°
Longitude
143.16887°
Altitude
835.248 km
Speed
7.399 km/s
True Right ascension
03h 37m 38s
True Declination
0° 00' 00"
Sunlit
Object was in daylight at epoch
Visualization orbit readout
Latitude
Unknown
Longitude
Unknown
Altitude
Unknown
Speed
Unknown
Apparent Right ascension
Unknown
Apparent Declination
Unknown
Sunlit
N/A
Visualization observer readout
Local Sidereal Time
03:49:35
Azimuth
Unknown
Elevation
Unknown
Doppler factor
Unknown
Orbital elements
Apogee altitude
845.563 km
Perigee altitude
675.637 km
Semi-major axis
7,138.737 km
Eccentricity
0.0119
Inclination
82.5208°
RAAN
54.412°
Arg. of periapsis
144.4829°
True anomaly
215.63569°
Mean anomaly
216.4361°
Eccentric anomaly
216.03494°
Mean motion
3.59841 °/min
Orbital period
100.04 mins
BSTAR
0.01216
Loading maneuver chart data...
Computing Atmospheric mass density...
Loading historical data...
Loading historical data...
Loading historical data...
Loading historical data...
Loading historical data...
Loading historical data...
Loading historical data...

Documentation

Showing up to 5 results
|